Location: Carr Mill
(33.2054°N, 85.9439°W)
Time: 06:52:44
(UTC+00:00)

ISS - Pass Details

Date: 26 June 2021
Orbit: 419 x 421 km, 51.6° (Epoch: 04 August)

Event Time Altitude Azimuth Distance (km) Brightness Sun altitude
Exits shadow 09:11:18 35° 215° (SW) 694 -3.2 -15.4°
Maximum altitude 09:12:34 77° 136° (SE) 431 -3.8 -15.2°
Drops below altitude 10° 09:15:56 10° 49° (NE) 1,497 0.5 -14.6°
Sets 09:18:02 0° 48° (NE) 2,364 2.1 -14.3°
